This demonstration page uses our WeatherBlox Daily Observations layout. Learn more.

Hourly Observations for March 29, 2020

Temp ( °F °C ) Dew Point ( °F °C ) Humidity (%) Winds ( mph kmh ) Pressure ( in mb ) Visibility ( mi km ) Precip ( " mm )
12:15 am 00:15 Clear 41 5.2 38 3.1 86 86 W 10 17 29.92 1013 10 16.0934 0 0
12:35 am 00:35 Clear 42 5.5 37 2.7 82 82 W 12 19 29.92 1013 10 16.0934 0 0
12:55 am 00:55 Clear 42 5.5 36 2.3 80 80 W 12 19 29.93 1014 10 16.0934 0 0
1:15 am 01:15 Clear 42 5.5 36 2.1 79 79 W 10 17 29.93 1014 10 16.0934 0 0
1:35 am 01:35 Clear 41 5.2 36 2 80 80 W 10 17 29.95 1014 10 16.0934 0 0
1:55 am 01:55 Clear 41 5.1 36 2 81 81 W 9 15 29.95 1014 10 16.0934 0 0
2:15 am 02:15 Clear 40 4.7 35 1.7 81 81 W 9 15 29.95 1014 10 16.0934 0 0
2:35 am 02:35 Clear 40 4.3 35 1.6 83 83 W 10 17 29.95 1014 10 16.0934 0 0
2:55 am 02:55 Clear 39 3.8 34 1.3 84 84 W 9 15 29.97 1015 10 16.0934 0 0
3:15 am 03:15 Clear 38 3.3 34 1 85 85 W 8 13 29.96 1015 10 16.0934 0 0
3:35 am 03:35 Clear 38 3.3 34 0.9 84 84 WNW 8 13 29.97 1015 10 16.0934 0 0
3:55 am 03:55 Clear 37 3 33 0.6 84 84 W 10 17 29.98 1015 10 16.0934 0 0
4:15 am 04:15 Clear 37 2.9 33 0.3 83 83 W 8 13 29.98 1015 10 16.0934 0 0
4:35 am 04:35 Clear 37 2.8 32 0.1 83 83 W 10 17 29.99 1016 10 16.0934 0 0
4:55 am 04:55 Clear 37 2.6 32 0 83 83 W 12 19 30 1016 10 16.0934 0 0
5:15 am 05:15 Clear 37 2.5 32 0 84 84 W 12 19 30.01 1016 10 16.0934 0 0
5:35 am 05:35 Clear 37 2.5 32 0 84 84 W 12 19 30.01 1016 10 16.0934 0 0
5:55 am 05:55 Clear 37 2.5 32 -0.1 83 83 W 8 13 30.02 1017 10 16.0934 0 0
6:15 am 06:15 Clear 36 2.2 32 -0.1 85 85 WNW 8 13 30.03 1017 10 16.0934 0 0
6:35 am 06:35 Clear 36 2.2 31 -0.3 84 84 W 8 13 30.03 1017 10 16.0934 0 0
6:55 am 06:55 Clear 37 2.6 31 -0.5 80 80 WNW 9 15 30.04 1017 10 16.0934 0 0
7:15 am 07:15 Clear 37 2.6 31 -0.6 80 80 WNW 9 15 30.05 1018 10 16.0934 0 0
7:35 am 07:35 Sunny 37 2.6 31 -0.6 80 80 WNW 9 15 30.05 1018 10 16.0934 0 0
7:55 am 07:55 Sunny 36 2.1 31 -0.5 83 83 W 8 13 30.06 1018 10 16.0934 0 0
8:15 am 08:15 Sunny 37 2.8 31 -0.3 80 80 W 9 15 30.07 1018 10 16.0934 0 0
8:35 am 08:35 Sunny 38 3.4 32 0 79 79 W 9 15 30.07 1018 10 16.0934 0 0
8:55 am 08:55 Sunny 39 4.1 33 0.6 78 78 WSW 8 13 30.08 1018 10 16.0934 0 0
9:15 am 09:15 Sunny 41 4.9 34 1.2 77 77 W 12 19 30.08 1019 10 16.0934 0 0
9:35 am 09:35 Sunny 43 5.9 35 1.8 75 75 W 10 17 30.08 1019 10 16.0934 0 0
9:55 am 09:55 Sunny 45 7.1 37 2.8 74 74 W 12 19 30.07 1018 10 16.0934 0 0
10:15 am 10:15 Sunny 47 8.4 37 2.8 68 68 WNW 12 19 30.07 1018 10 16.0934 0 0
10:35 am 10:35 Sunny 49 9.4 38 3.4 66 66 WNW 13 20 30.06 1018 10 16.0934 0 0
10:55 am 10:55 Sunny 51 10.5 38 3.4 62 62 NW 16 26 30.06 1018 10 16.0934 0 0
11:15 am 11:15 Sunny 53 11.6 37 2.8 55 55 NW 14 22 30.05 1018 10 16.0934 0 0
11:35 am 11:35 Sunny 55 12.7 36 2.3 49 49 WNW 14 22 30.05 1018 10 16.0934 0 0
11:55 am 11:55 Sunny 56 13.5 34 1.3 44 44 WNW 12 19 30.05 1018 10 16.0934 0 0
12:15 pm 12:15 Sunny 57 14 32 0.2 39 39 WNW 14 22 30.05 1018 10 16.0934 0 0
12:35 pm 12:35 Sunny 58 14.6 32 0.2 38 38 WNW 12 19 30.04 1017 10 16.0934 0 0
12:55 pm 12:55 Sunny 59 14.8 28 -2.1 31 31 NNW 16 26 30.04 1017 10 16.0934 0 0
1:15 pm 13:15 Sunny 59 14.8 29 -1.9 32 32 NW 14 22 30.03 1017 10 16.0934 0 0
1:35 pm 13:35 Sunny 59 15.1 29 -1.5 32 32 NW 14 22 30.03 1017 10 16.0934 0 0
1:55 pm 13:55 Sunny 59 15.2 29 -1.9 31 31 WNW 12 19 30.03 1017 10 16.0934 0 0
2:15 pm 14:15 Sunny 60 15.5 29 -1.8 31 31 WNW 9 15 30.02 1017 10 16.0934 0 0
2:35 pm 14:35 Sunny 60 15.5 28 -2.1 30 30 WNW 10 17 30.02 1017 10 16.0934 0 0
2:55 pm 14:55 Sunny 61 15.9 29 -1.9 30 30 WNW 8 13 30.02 1017 10 16.0934 0 0
3:15 pm 15:15 Sunny 61 15.9 28 -2.3 29 29 NW 8 13 30.02 1017 10 16.0934 0 0
3:35 pm 15:35 Sunny 61 16.2 28 -2.2 28 28 W 7 11 30.02 1017 10 16.0934 0 0
3:55 pm 15:55 Sunny 61 16 27 -2.7 28 28 NW 3 6 30.01 1016 10 16.0934 0 0
4:15 pm 16:15 Sunny 62 16.7 29 -1.4 29 29 WNW 8 13 30 1016 10 16.0934 0 0
4:35 pm 16:35 Partly Cloudy 61 16.2 28 -2.5 28 28 NNW 3 6 30.01 1016 10 16.0934 0 0
4:55 pm 16:55 Partly Cloudy 62 16.8 27 -2.8 26 26 WNW 7 11 30 1016 10 16.0934 0 0
5:15 pm 17:15 Partly Cloudy 61 16.3 28 -2.5 28 28 Calm 30.01 1016 10 16.0934 0 0
5:35 pm 17:35 Partly Cloudy 61 16.2 27 -2.6 28 28 WNW 6 9 30 1016 10 16.0934 0 0
5:55 pm 17:55 Partly Cloudy 62 16.6 26 -3.1 26 26 NW 3 6 30 1016 10 16.0934 0 0
6:15 pm 18:15 Partly Cloudy 63 17 27 -2.8 26 26 W 7 11 29.99 1016 10 16.0934 0 0
6:35 pm 18:35 Partly Cloudy 62 16.5 27 -2.6 27 27 W 9 15 30 1016 10 16.0934 0 0
6:55 pm 18:55 Sunny 58 14.7 31 -0.7 35 35 W 3 6 30.02 1017 10 16.0934 0 0
7:15 pm 19:15 Partly Cloudy 60 15.6 29 -1.5 31 31 Calm 30.02 1017 10 16.0934 0 0
7:35 pm 19:35 Sunny 59 15 29 -1.8 32 32 Calm 30.03 1017 10 16.0934 0 0
7:55 pm 19:55 Sunny 57 14.1 31 -0.7 36 36 Calm 30.04 1017 10 16.0934 0 0
8:15 pm 20:15 Clear 51 10.3 33 0.5 51 51 NE 3 6 30.07 1018 10 16.0934 0 0
8:35 pm 20:35 Clear 48 8.8 33 0.7 57 57 E 5 7 30.08 1019 10 16.0934 0 0
8:55 pm 20:55 Clear 49 9.5 34 1.1 56 56 ESE 3 6 30.09 1019 10 16.0934 0 0
9:15 pm 21:15 Clear 49 9.6 32 0 52 52 ESE 6 9 30.09 1019 10 16.0934 0 0
9:35 pm 21:35 Clear 44 6.7 33 0.4 64 64 ESE 6 9 30.12 1020 10 16.0934 0 0
9:55 pm 21:55 Clear 43 5.9 34 0.9 71 71 ESE 6 9 30.13 1020 10 16.0934 0 0
10:15 pm 22:15 Clear 43 6.2 32 0.2 66 66 ESE 7 11 30.13 1020 10 16.0934 0 0
10:35 pm 22:35 Clear 42 5.5 33 0.5 71 71 ESE 8 13 30.13 1020 10 16.0934 0 0
10:55 pm 22:55 Clear 42 5.3 32 0.1 69 69 SE 6 9 30.14 1020 10 16.0934 0 0
11:15 pm 23:15 Clear 40 4.3 32 0 74 74 SE 3 6 30.15 1021 10 16.0934 0 0
11:35 pm 23:35 Partly Cloudy 44 6.4 31 -0.5 62 62 SSE 5 7 30.14 1020 10 16.0934 0 0
11:55 pm 23:55 Partly Cloudy 42 5.6 31 -0.5 65 65 SSE 5 7 30.14 1021 10 16.0934 0 0

Powered by AerisWeather